Time,TemperatureF,DewpointF,PressureIn,WindDirection,WindDirectionDegrees,WindSpeedMPH,WindSpeedGustMPH,Humidity,HourlyPrecipIn,Conditions,Clouds,dailyrainin,SolarRadiationWatts/m^2,SoftwareType,DateUTC
2017-11-20 00:19:00,42.6,38.7,30.10,WSW,239,0.0,2.0,86,0.00,,,0.00,0.0,meteobridge,2017-11-19 23:19:00,
2017-11-20 00:29:00,42.6,38.7,30.10,WSW,239,0.0,1.0,86,0.00,,,0.00,0.0,meteobridge,2017-11-19 23:29:00,
2017-11-20 00:39:00,42.4,38.5,30.10,WSW,239,0.0,0.0,86,0.00,,,0.00,0.0,meteobridge,2017-11-19 23:39:00,
2017-11-20 01:09:00,42.6,38.7,30.10,WSW,245,0.9,5.0,86,0.00,,,0.00,0.0,meteobridge,2017-11-20 00:09:00,
2017-11-20 01:19:00,42.6,38.7,30.10,WSW,244,0.0,4.0,86,0.00,,,0.00,0.0,meteobridge,2017-11-20 00:19:00,
2017-11-20 01:29:00,42.8,38.7,30.09,SW,229,4.0,6.0,85,0.00,,,0.00,0.0,meteobridge,2017-11-20 00:29:00,
2017-11-20 01:39:00,42.8,38.7,30.09,WSW,239,0.0,3.0,85,0.00,,,0.00,0.0,meteobridge,2017-11-20 00:39:00,
2017-11-20 01:49:00,42.8,38.7,30.09,WSW,252,2.0,2.0,85,0.00,,,0.00,0.0,meteobridge,2017-11-20 00:49:00,
2017-11-20 01:59:00,43.0,38.8,30.09,WSW,252,0.9,2.0,85,0.00,,,0.00,0.0,meteobridge,2017-11-20 00:59:00,
2017-11-20 02:09:00,43.0,38.8,30.09,WSW,252,0.0,0.0,85,0.00,,,0.00,0.0,meteobridge,2017-11-20 01:09:00,
2017-11-20 02:19:00,42.8,38.7,30.09,WSW,251,0.0,4.0,85,0.00,,,0.00,0.0,meteobridge,2017-11-20 01:19:00,
2017-11-20 02:39:00,42.8,38.7,30.08,WSW,251,0.9,1.0,85,0.00,,,0.00,0.0,meteobridge,2017-11-20 01:39:00,
2017-11-20 02:49:00,43.2,39.2,30.08,WSW,251,0.0,1.0,86,0.00,,,0.00,0.0,meteobridge,2017-11-20 01:49:00,
2017-11-20 03:09:00,43.3,39.4,30.08,West,259,2.0,3.0,86,0.00,,,0.00,0.0,meteobridge,2017-11-20 02:09:00,
2017-11-20 03:39:00,43.9,39.9,30.07,South,187,4.9,6.0,86,0.00,,,0.00,0.0,meteobridge,2017-11-20 02:39:00,
2017-11-20 03:49:00,43.7,39.7,30.07,West,269,4.0,4.0,86,0.00,,,0.00,0.0,meteobridge,2017-11-20 02:49:00,
2017-11-20 04:09:00,43.3,39.4,30.06,South,191,2.9,4.0,86,0.00,,,0.00,0.0,meteobridge,2017-11-20 03:09:00,
2017-11-20 04:19:00,43.3,39.4,30.06,WSW,252,0.0,1.0,86,0.00,,,0.00,0.0,meteobridge,2017-11-20 03:19:00,
2017-11-20 04:29:00,43.2,39.2,30.06,SW,236,0.9,5.0,86,0.00,,,0.00,0.0,meteobridge,2017-11-20 03:29:00,
2017-11-20 04:39:00,43.2,39.2,30.06,WSW,240,0.9,2.0,86,0.00,,,0.00,0.0,meteobridge,2017-11-20 03:39:00,
2017-11-20 04:59:00,43.2,39.2,30.06,WSW,238,0.0,0.0,86,0.00,,,0.00,0.0,meteobridge,2017-11-20 03:59:00,
2017-11-20 05:09:00,43.2,39.2,30.06,WSW,238,0.0,2.0,86,0.00,,,0.00,0.0,meteobridge,2017-11-20 04:09:00,
2017-11-20 05:19:00,43.0,38.8,30.06,SW,230,0.0,3.0,85,0.00,,,0.00,0.0,meteobridge,2017-11-20 04:19:00,
2017-11-20 05:39:00,43.2,39.0,30.06,WSW,244,0.0,2.0,85,0.00,,,0.00,0.0,meteobridge,2017-11-20 04:39:00,
2017-11-20 05:49:00,43.2,39.0,30.06,SW,228,2.0,3.0,85,0.00,,,0.00,0.0,meteobridge,2017-11-20 04:49:00,
2017-11-20 06:09:00,43.2,39.0,30.05,SW,214,0.0,3.0,85,0.00,,,0.00,0.0,meteobridge,2017-11-20 05:09:00,
2017-11-20 06:19:00,43.0,38.8,30.05,SW,221,0.9,4.0,85,0.00,,,0.00,0.0,meteobridge,2017-11-20 05:19:00,
2017-11-20 06:29:00,43.0,38.8,30.05,SW,236,2.0,4.0,85,0.00,,,0.00,0.0,meteobridge,2017-11-20 05:29:00,
2017-11-20 06:39:00,43.0,38.8,30.05,SSW,209,0.9,4.0,85,0.00,,,0.00,0.0,meteobridge,2017-11-20 05:39:00,
2017-11-20 07:09:00,42.6,38.5,30.05,West,267,0.0,6.0,85,0.01,,,0.01,0.0,meteobridge,2017-11-20 06:09:00,
2017-11-20 07:19:00,42.6,38.7,30.05,West,272,2.9,5.0,86,0.01,,,0.01,0.0,meteobridge,2017-11-20 06:19:00,
2017-11-20 07:39:00,42.3,38.3,30.05,WSW,257,2.0,3.0,86,0.02,,,0.02,0.0,meteobridge,2017-11-20 06:39:00,
2017-11-20 07:49:00,42.1,38.1,30.04,SW,215,4.9,5.0,86,0.02,,,0.03,0.0,meteobridge,2017-11-20 06:49:00,
2017-11-20 07:59:00,42.1,38.5,30.04,SSW,205,0.0,5.0,87,0.03,,,0.04,0.0,meteobridge,2017-11-20 06:59:00,
2017-11-20 08:09:00,42.1,38.5,30.03,SSW,196,4.0,6.0,87,0.03,,,0.04,0.0,meteobridge,2017-11-20 07:09:00,
2017-11-20 08:29:00,42.3,38.7,30.03,WSW,249,4.9,5.0,87,0.02,,,0.05,0.0,meteobridge,2017-11-20 07:29:00,
2017-11-20 08:40:00,42.3,38.7,30.02,SSW,209,0.0,4.0,87,0.02,,,0.05,7.0,meteobridge,2017-11-20 07:40:00,
2017-11-20 08:50:00,42.3,39.0,30.01,SSW,204,4.9,7.0,88,0.02,,,0.05,9.0,meteobridge,2017-11-20 07:50:00,
2017-11-20 09:00:00,42.3,39.0,30.01,SW,215,0.9,6.0,88,0.02,,,0.06,5.0,meteobridge,2017-11-20 08:00:00,
2017-11-20 09:10:00,42.3,39.0,30.01,SW,232,2.0,7.0,88,0.02,,,0.06,16.0,meteobridge,2017-11-20 08:10:00,
2017-11-20 09:30:00,42.3,39.0,30.01,SSW,208,8.9,9.0,88,0.01,,,0.06,40.0,meteobridge,2017-11-20 08:30:00,
2017-11-20 09:40:00,42.3,39.0,30.00,SW,228,2.0,5.0,88,0.01,,,0.06,40.0,meteobridge,2017-11-20 08:40:00,
2017-11-20 09:50:00,42.1,38.8,30.00,SSW,207,2.0,6.0,88,0.01,,,0.06,35.0,meteobridge,2017-11-20 08:50:00,
2017-11-20 10:00:00,42.1,38.8,30.00,SSW,196,0.9,8.0,88,0.00,,,0.06,44.0,meteobridge,2017-11-20 09:00:00,
2017-11-20 10:10:00,41.9,38.7,29.99,West,269,2.9,8.0,88,0.00,,,0.06,33.0,meteobridge,2017-11-20 09:10:00,
2017-11-20 10:20:00,41.7,38.5,29.99,SSW,202,2.0,5.0,88,0.00,,,0.06,37.0,meteobridge,2017-11-20 09:20:00,
2017-11-20 10:30:00,41.7,38.5,29.99,SSW,194,4.0,11.0,88,0.00,,,0.06,37.0,meteobridge,2017-11-20 09:30:00,
2017-11-20 10:40:00,41.7,38.5,29.98,South,171,0.9,7.0,88,0.00,,,0.06,40.0,meteobridge,2017-11-20 09:40:00,
2017-11-20 10:50:00,41.7,38.1,29.98,West,264,0.9,6.0,87,0.01,,,0.06,56.0,meteobridge,2017-11-20 09:50:00,
2017-11-20 11:00:00,41.5,37.9,29.97,SSW,212,4.0,5.0,87,0.01,,,0.06,58.0,meteobridge,2017-11-20 10:00:00,
2017-11-20 11:10:00,41.5,37.9,29.97,SSW,196,4.9,11.0,87,0.01,,,0.06,49.0,meteobridge,2017-11-20 10:10:00,
2017-11-20 11:20:00,41.5,37.9,29.96,SW,234,10.1,10.1,87,0.01,,,0.06,33.0,meteobridge,2017-11-20 10:20:00,
2017-11-20 11:30:00,41.4,38.1,29.96,SW,225,2.0,7.0,88,0.02,,,0.07,44.0,meteobridge,2017-11-20 10:30:00,
2017-11-20 11:40:00,41.4,38.1,29.96,South,185,6.9,11.0,88,0.02,,,0.07,44.0,meteobridge,2017-11-20 10:40:00,
2017-11-20 11:50:00,41.4,38.1,29.94,SW,216,0.9,9.0,88,0.01,,,0.07,51.0,meteobridge,2017-11-20 10:50:00,
2017-11-20 12:00:00,41.4,38.1,29.93,SSE,164,6.9,11.0,88,0.02,,,0.08,37.0,meteobridge,2017-11-20 11:00:00,
2017-11-20 12:10:00,41.5,38.3,29.93,SSW,197,6.9,8.0,88,0.02,,,0.08,33.0,meteobridge,2017-11-20 11:10:00,
2017-11-20 12:20:00,41.4,38.1,29.93,SW,225,4.9,8.0,88,0.02,,,0.08,26.0,meteobridge,2017-11-20 11:20:00,
2017-11-20 12:30:00,41.5,38.3,29.92,SW,217,2.9,7.0,88,0.01,,,0.08,28.0,meteobridge,2017-11-20 11:30:00,
2017-11-20 12:40:00,41.5,38.3,29.91,SSW,204,4.0,11.0,88,0.01,,,0.08,26.0,meteobridge,2017-11-20 11:40:00,
2017-11-20 13:00:00,41.9,38.8,29.90,SSE,161,4.0,10.0,89,0.01,,,0.09,26.0,meteobridge,2017-11-20 12:00:00,
2017-11-20 13:10:00,42.3,39.2,29.89,SW,219,2.0,9.0,89,0.01,,,0.09,25.0,meteobridge,2017-11-20 12:10:00,
2017-11-20 13:20:00,42.4,39.4,29.89,SW,221,4.9,9.0,89,0.02,,,0.09,23.0,meteobridge,2017-11-20 12:20:00,
2017-11-20 13:26:00,-999.9,-99.9,-100.00,North,-9999,-999.9,-999.0,-999,-99.99,,,-99.99,,,2017-11-20 12:26:00,
2017-11-20 13:40:00,42.6,39.6,29.88,South,186,4.9,5.0,89,0.02,,,0.09,19.0,meteobridge,2017-11-20 12:40:00,
2017-11-20 13:50:00,42.8,39.7,29.87,SSE,156,6.0,11.0,89,0.01,,,0.09,23.0,meteobridge,2017-11-20 12:50:00,
2017-11-20 14:00:00,43.0,39.9,29.86,WSW,242,0.9,11.0,89,0.01,,,0.09,23.0,meteobridge,2017-11-20 13:00:00,
2017-11-20 14:10:00,43.2,40.1,29.85,SSW,213,4.9,10.0,89,0.01,,,0.09,23.0,meteobridge,2017-11-20 13:10:00,
2017-11-20 14:30:00,43.3,40.3,29.84,SW,223,4.0,10.0,89,0.00,,,0.09,25.0,meteobridge,2017-11-20 13:30:00,
2017-11-20 14:40:00,43.5,40.5,29.83,South,187,10.1,13.0,89,0.00,,,0.09,26.0,meteobridge,2017-11-20 13:40:00,
2017-11-20 14:50:00,43.9,40.8,29.83,SW,224,4.0,7.0,89,0.00,,,0.09,32.0,meteobridge,2017-11-20 13:50:00,
2017-11-20 15:00:00,44.2,41.2,29.82,SW,227,6.9,8.0,89,0.00,,,0.09,26.0,meteobridge,2017-11-20 14:00:00,
2017-11-20 15:10:00,44.6,41.5,29.82,West,263,2.9,11.0,89,0.00,,,0.09,23.0,meteobridge,2017-11-20 14:10:00,
2017-11-20 15:40:00,45.3,42.3,29.80,SSW,207,6.9,14.0,89,0.00,,,0.09,16.0,meteobridge,2017-11-20 14:40:00,
2017-11-20 15:50:00,45.7,43.0,29.80,WSW,239,4.9,7.0,90,0.00,,,0.09,11.0,meteobridge,2017-11-20 14:50:00,
2017-11-20 16:00:00,46.0,43.3,29.79,WSW,238,8.1,9.0,90,0.01,,,0.10,5.0,meteobridge,2017-11-20 15:00:00,
2017-11-20 16:10:00,46.4,43.7,29.79,WSW,241,2.9,9.0,90,0.01,,,0.10,0.0,meteobridge,2017-11-20 15:10:00,
2017-11-20 16:20:00,46.8,44.1,29.79,West,260,6.0,9.0,90,0.02,,,0.11,0.0,meteobridge,2017-11-20 15:20:00,
2017-11-20 16:30:00,47.1,44.4,29.78,SW,224,2.0,9.0,90,0.02,,,0.12,0.0,meteobridge,2017-11-20 15:30:00,
2017-11-20 17:10:00,47.8,45.0,29.77,SW,216,4.9,8.0,90,0.04,,,0.14,0.0,meteobridge,2017-11-20 16:10:00,
2017-11-20 17:20:00,48.0,45.1,29.77,SW,225,2.0,8.0,90,0.05,,,0.16,0.0,meteobridge,2017-11-20 16:20:00,